Time,TemperatureF,DewpointF,PressureIn,WindDirection,WindDirectionDegrees,WindSpeedMPH,WindSpeedGustMPH,Humidity,HourlyPrecipIn,Conditions,Clouds,dailyrainin,SolarRadiationWatts/m^2,SoftwareType,DateUTC
2015-03-27 00:00:00,44.3,43.2,30.16,NNW,337,2.0,3.0,96,0.00,,CLR,0.01,0.00,VWS V14.01,2015-03-27 07:00:00,
2015-03-27 00:30:00,42.9,41.3,30.16,NNW,332,1.0,4.0,94,0.00,,CLR,0.00,0.00,VWS V14.01,2015-03-27 07:30:00,
2015-03-27 01:00:00,42.2,41.1,30.15,NW,325,2.0,4.0,96,0.00,,CLR,0.00,0.00,VWS V14.01,2015-03-27 08:00:00,
2015-03-27 01:30:00,40.8,39.8,30.15,NNW,337,3.0,4.0,96,0.00,,CLR,0.00,0.00,VWS V14.01,2015-03-27 08:30:00,
2015-03-27 02:00:00,40.4,39.3,30.14,NNW,330,1.0,4.0,96,0.00,,CLR,0.00,0.00,VWS V14.01,2015-03-27 09:00:00,
2015-03-27 02:30:00,40.9,40.1,30.14,North,4,3.0,8.0,97,0.00,,CLR,0.00,0.00,VWS V14.01,2015-03-27 09:30:00,
2015-03-27 03:00:00,39.3,38.5,30.14,NNW,337,3.0,4.0,97,0.00,,,0.00,0.00,VWS V14.01,2015-03-27 10:00:00,
2015-03-27 03:30:00,39.2,38.4,30.13,NNW,338,1.0,4.0,97,0.00,,,0.00,0.00,VWS V14.01,2015-03-27 10:30:00,
2015-03-27 04:00:00,39.6,38.8,30.12,NNW,339,2.0,3.0,97,0.00,,BKN006,0.00,0.00,VWS V14.01,2015-03-27 11:00:00,
2015-03-27 04:30:00,40.7,39.9,30.11,NNW,341,2.0,6.0,97,0.00,,BKN006,0.00,0.00,VWS V14.01,2015-03-27 11:30:00,
2015-03-27 05:00:00,39.8,39.0,30.10,NNW,340,2.0,5.0,97,0.00,,OVC004,0.00,0.00,VWS V14.01,2015-03-27 12:00:00,
2015-03-27 05:30:00,39.6,38.8,30.10,NW,326,1.0,3.0,97,0.00,,OVC004,0.00,0.00,VWS V14.01,2015-03-27 12:30:00,
2015-03-27 06:00:00,39.7,38.9,30.10,NNE,18,1.0,3.0,97,0.00,,,0.00,0.00,VWS V14.01,2015-03-27 13:00:00,
2015-03-27 06:30:00,40.3,39.5,30.10,NNW,344,0.0,3.0,97,0.00,,,0.00,0.00,VWS V14.01,2015-03-27 13:30:00,
2015-03-27 07:00:00,41.8,41.0,30.10,North,354,1.0,4.0,97,0.00,,,0.00,9.00,VWS V14.01,2015-03-27 14:00:00,
2015-03-27 07:30:00,40.6,39.8,30.10,NNW,327,3.0,4.0,97,0.00,,,0.00,25.00,VWS V14.01,2015-03-27 14:30:00,
2015-03-27 08:00:00,42.4,41.9,30.10,ENE,68,2.0,6.0,98,0.00,,,0.00,47.00,VWS V14.01,2015-03-27 15:00:00,
2015-03-27 08:30:00,42.8,42.3,30.10,NE,37,1.0,7.0,98,0.00,,,0.00,76.00,VWS V14.01,2015-03-27 15:30:00,
2015-03-27 09:00:00,43.9,43.4,30.10,East,97,3.0,5.0,98,0.00,,,0.00,107.00,VWS V14.01,2015-03-27 16:00:00,
2015-03-27 09:30:00,45.2,44.7,30.09,NNW,347,2.0,6.0,98,0.00,,,0.00,139.00,VWS V14.01,2015-03-27 16:30:00,
2015-03-27 10:00:00,47.0,46.5,30.08,North,4,2.0,7.0,98,0.00,,,0.00,250.00,VWS V14.01,2015-03-27 17:00:00,
2015-03-27 10:30:00,49.6,48.8,30.07,NNW,339,3.0,7.0,97,0.00,,,0.00,598.00,VWS V14.01,2015-03-27 17:30:00,
2015-03-27 11:00:00,53.7,50.5,30.06,NNW,336,0.0,7.0,89,0.00,,,0.00,621.00,VWS V14.01,2015-03-27 18:00:00,
2015-03-27 11:30:00,58.1,50.6,30.05,NNE,21,3.0,9.0,76,0.00,,,0.00,661.00,VWS V14.01,2015-03-27 18:30:00,
2015-03-27 12:00:00,60.0,50.6,30.03,South,179,1.0,8.0,71,0.00,,SCT008,0.00,545.00,VWS V14.01,2015-03-27 19:00:00,
2015-03-27 12:30:00,62.5,51.0,30.02,SE,130,2.0,8.0,66,0.00,,SCT008,0.00,687.00,VWS V14.01,2015-03-27 19:30:00,
2015-03-27 13:00:00,65.0,51.2,30.00,North,4,3.0,8.0,61,0.00,,CLR,0.00,721.00,VWS V14.01,2015-03-27 20:00:00,
2015-03-27 13:30:00,67.1,50.9,29.99,NNW,328,1.0,4.0,56,0.00,,CLR,0.00,715.00,VWS V14.01,2015-03-27 20:30:00,
2015-03-27 14:00:00,69.0,50.7,29.97,West,268,3.0,5.0,52,0.00,,CLR,0.00,694.00,VWS V14.01,2015-03-27 21:00:00,